[[{"header":{"parameterUnit":"m.s-1","parameterCategory":2,"la1":30.2991,"la2":30.254,"lo1":-89.0895,"lo2":-89.0444,"dy":0.0017,"dx":0.0017,"nx":28,"ny":28,"refTime":"2024-02-27T09:00:00:Z","depth":"0","parameterNumber":2,"parameterNumberName":"U-component_of_CURRENTS"},"data":[0,0,0,0,0,0,0,0,0,0,0,0,0,0,0,0,0,0,0,0,0,0,0,0,0,0,0,0,0,0,0,0,0,0,0,0,0,0,0,0,0,0,0,0,0,0,0,0,0,0,0,0,0,0,0,0,0,0,0.2253,0.2253,0,0.2259,0.2259,0.2259,0.2255,0.2255,0.2254,0.2254,0.2237,0.2237,0.2237,0,0,0,0,0,0,0,0,0,0,0,0,0,0.2266,0.2266,0.2253,0.2253,0.2253,0.2259,0.2259,0.2259,0.2255,0.2255,0.2254,0.2254,0.2238,0.2237,0.2237,0,0,0,0,0,0,0,0,0,0,0,0,0,0.2264,0.2265,0.2253,0.2253,0.2253,0.2259,0.2259,0.2259,0.2255,0.2255,0.2254,0.2254,0.2238,0.2237,0.2237,0.2235,0,0,0.2235,0.2235,0,0,0,0,0,0,0,0,0.2264,0.2263,0.2253,0.2253,0.2253,0.2257,0.2258,0.225,0.2255,0.2253,0.2254,0.2254,0.2243,0.2242,0.2242,0.2235,0.2234,0.2235,0.2234,0.2234,0.2234,0,0,0,0,0,0,0,0.2264,0.2263,0.2254,0.2253,0.2253,0.2263,0.2262,0.2256,0.2247,0.2253,0.2253,0.2256,0.2243,0.2242,0.2241,0.2234,0.2235,0.2234,0.2234,0.2234,0.2268,0.227,0,0,0,0,0,0,0.2264,0.2263,0.2254,0.2254,0.226,0.2262,0.2261,0.2255,0.2247,0.2247,0.2256,0.2255,0.2243,0.2242,0.2241,0.2251,0.2234,0.2234,0.2233,0.2267,0.2269,0.227,0,0,0,0,0,0,0.2265,0.2263,0.2253,0.2261,0.226,0.2262,0.2255,0.2255,0.2258,0.225,0.2249,0.2259,0.2243,0.2241,0.2249,0.225,0.2233,0.2233,0.2266,0.2268,0.2269,0.2264,0,0,0,0,0,0,0.2265,0.2263,0.2258,0.226,0.226,0.2264,0.2255,0.2255,0.226,0.226,0.2252,0.225,0.2243,0.225,0.2248,0.2249,0.2232,0.2264,0.2267,0.2269,0.2262,0.2265,0.2268,0,0,0,0,0,0.2265,0.2266,0.2257,0.2256,0.2252,0.2265,0.2266,0.2266,0.226,0.2267,0.2266,0.2251,0.2264,0.225,0.2248,0.2248,0.2263,0.2266,0.2269,0.2261,0.2265,0.2268,0,0,0,0,0,0,0.2274,0.2266,0.2256,0.2255,0.226,0.2265,0.2267,0.2269,0.2272,0.2269,0.2261,0.226,0.2273,0.2267,0.2252,0.2271,0.2264,0.2266,0.2259,0.2262,0.2265,0.2252,0.2232,0,0,0,0,0,0.2271,0.2266,0.2265,0.2265,0.2263,0.2264,0.2268,0.227,0.2275,0.2276,0.227,0.2272,0.2283,0.2277,0.2287,0.2286,0.2298,0.229,0.2292,0.2294,0.2287,0.2347,0.2354,0.2279,0.2279,0.2279,0,0,0.2277,0.227,0.2269,0.2266,0.2263,0.2256,0.2265,0.2274,0.2267,0.2273,0.2262,0.2283,0.229,0.2298,0.2302,0.2289,0.2318,0.2298,0.2299,0.229,0.2351,0.2358,0.2364,0.2281,0.2281,0.2281,0,0,0.2282,0.2274,0.2267,0.2266,0.2265,0.2263,0.2266,0.2269,0.2269,0.227,0.2282,0.2304,0.23,0.2312,0.2315,0.2339,0.234,0.2347,0.2332,0.2391,0.2397,0.2403,0.2402,0.2407,0.2336,0.2336,0.2336,0,0.2286,0.2268,0.2272,0.2261,0.2252,0.2261,0.2249,0.2252,0.2261,0.2261,0.2266,0.2296,0.2304,0.232,0.2333,0.2341,0.2362,0.2313,0.2393,0.2399,0.2405,0.2403,0.2409,0.2336,0.2336,0.2336,0.2336,0,0.2281,0.2263,0.2261,0.2236,0.2234,0.2231,0.2228,0.2231,0.223,0.2234,0.2259,0.2287,0.2303,0.2319,0.2327,0.2374,0.2369,0.2399,0.2379,0.2412,0.2407,0.2414,0.2336,0.2336,0.2336,0.2336,0,0,0.2294,0.226,0.2257,0.223,0.2218,0.2213,0.2203,0.2197,0.2185,0.2213,0.2211,0.2254,0.2283,0.2292,0.2323,0.2368,0.2423,0.2398,0.2401,0.2384,0.2519,0.2305,0.2292,0.2479,0.2481,0.2482,0.2488,0,0.2282,0.2247,0.2237,0.2199,0.2174,0.2172,0.2155,0.2156,0.2161,0.2165,0.2212,0.2227,0.2268,0.2283,0.2342,0.2413,0.2445,0.2415,0.25,0.2501,0.2298,0.2294,0.2096,0.2067,0.2495,0.2496,0.2497,0,0.2272,0.2245,0.2204,0.2155,0.2144,0.2126,0.2098,0.209,0.2104,0.2113,0.2151,0.2186,0.2249,0.2288,0.2409,0.2395,0.2453,0.2503,0.2505,0.231,0.2299,0.2111,0.2063,0.1967,0.2507,0.2506,0.2505,0,0.2263,0.2219,0.2179,0.2164,0.2118,0.21,0.2081,0.2077,0.2065,0.2088,0.2087,0.2167,0.2202,0.2313,0.2403,0.2423,0.2526,0.2566,0.2418,0.2403,0.2247,0.2212,0.2101,0.2651,0.2651,0.2651,0.2651,0,0.2243,0.221,0.2168,0.2143,0.2095,0.2077,0.2038,0.2033,0.2031,0.2014,0.2067,0.2074,0.2221,0.2287,0.2389,0.2391,0.2516,0.2393,0.239,0.2233,0.2199,0.2117,0.209,0.2651,0.2651,0.2651,0.2651,0,0.2231,0.2204,0.2154,0.2103,0.2085,0.2054,0.2006,0.1982,0.1982,0.1967,0.1973,0.2022,0.2067,0.217,0.2318,0.2322,0.2266,0.236,0.2118,0.2082,0.1781,0.176,0.1617,0.1595,0.2164,0.2158,0.2154,0,0.2209,0.2184,0.213,0.2097,0.2069,0.2022,0.1986,0.1966,0.1944,0.1929,0.1923,0.1934,0.1922,0.1988,0.1987,0.2026,0.2068,0.1866,0.1849,0.1694,0.1676,0.1681,0.1679,0.1654,0.1646,0.1639,0.1634,0,0.2166,0.2159,0.2125,0.2067,0.2019,0.1966,0.192,0.1893,0.1867,0.1848,0.1812,0.1791,0.1732,0.1622,0.16,0.1635,0.1671,0.1719,0.1666,0.1316,0.1217,0.1215,0.1697,0.1574,0.158,0.1584,0.1587,0.159,0.2136,0.2115,0.2077,0.2018,0.1966,0.1901,0.1843,0.1802,0.1751,0.166,0.1702,0.1562,0.1352,0.1237,0.1261,0.1044,0.1207,0.1,0.1007,0.1044,0.094,0.1219,0.102,0.1022,0.1025,0.1027,0.1029,0,0.208,0.2065,0.202,0.1937,0.1864,0.1858,0.1781,0.1707,0.1621,0.1507,0.1444,0.1093,0.0884,0.0738,0.0453,0.0358,0.0461,0.0361,0.0377,0.0436,0.0761,0.0652,0.0232,0.0232,0.0232,0.0232,0.0232,0.0232,0.2045,0.1998,0.1979,0.1846,0.1791,0.1678,0.1626,0.1526,0.1415,0.1132,0.0873,0.0744,0.0416,0.0033,-0.0188,-0.0146,-0.0081,-0.0172,-0.0012,0.0226,0.0289,0.035,0.0243,-0.0256,-0.0257,-0.0358,-0.036,-0.0361]},{"header":{"parameterUnit":"m.s-1","parameterCategory":2,"la1":30.2991,"la2":30.254,"lo1":-89.0895,"lo2":-89.0444,"dy":0.0017,"dx":0.0017,"nx":28,"ny":28,"refTime":"2024-02-27T09:00:00:Z","depth":"0","parameterNumber":3,"parameterNumberName":"V-component_of_CURRENTS"},"data":[0,0,0,0,0,0,0,0,0,0,0,0,0,0,0,0,0,0,0,0,0,0,0,0,0,0,0,0,0,0,0,0,0,0,0,0,0,0,0,0,0,0,0,0,0,0,0,0,0,0,0,0,0,0,0,0,0,0,0.0343,0.0344,0,0.0444,0.0446,0.0447,0.0498,0.0498,0.0497,0.0497,0.058,0.0583,0.0585,0,0,0,0,0,0,0,0,0,0,0,0,0,0.0248,0.0249,0.0343,0.0344,0.0345,0.0444,0.0446,0.0447,0.0498,0.0498,0.0497,0.0497,0.0579,0.0582,0.0585,0,0,0,0,0,0,0,0,0,0,0,0,0,0.0315,0.0249,0.0342,0.038,0.0385,0.0444,0.0446,0.0448,0.0498,0.0498,0.0497,0.0497,0.0579,0.0582,0.0585,0.0613,0,0,0.0596,0.0598,0,0,0,0,0,0,0,0,0.0311,0.0318,0.0374,0.0378,0.0383,0.0456,0.0443,0.0501,0.0498,0.0457,0.0497,0.0497,0.0536,0.0543,0.0566,0.0616,0.062,0.0597,0.0599,0.06,0.0601,0,0,0,0,0,0,0,0.0306,0.0315,0.0385,0.0375,0.038,0.0411,0.042,0.0455,0.0498,0.0461,0.0464,0.0472,0.0539,0.0562,0.0568,0.0621,0.0597,0.06,0.0602,0.0603,0.0728,0.0729,0,0,0,0,0,0,0.0287,0.031,0.0382,0.0388,0.0343,0.0413,0.0423,0.0435,0.0498,0.0507,0.0472,0.0474,0.0556,0.0564,0.0571,0.0635,0.06,0.0604,0.0606,0.0727,0.0729,0.073,0,0,0,0,0,0,0.0285,0.0293,0.0378,0.0349,0.0362,0.0414,0.0427,0.0437,0.0462,0.0507,0.0516,0.0487,0.0557,0.0566,0.0615,0.0637,0.0605,0.0608,0.0726,0.0728,0.0729,0.0744,0,0,0,0,0,0,0.0282,0.0291,0.0294,0.0348,0.0363,0.0415,0.0428,0.0439,0.0466,0.0469,0.0522,0.053,0.0557,0.0609,0.0618,0.0641,0.0611,0.0724,0.0726,0.0729,0.0742,0.0746,0.0749,0,0,0,0,0,0.0278,0.0282,0.0294,0.0302,0.0365,0.0416,0.0427,0.0464,0.0467,0.0484,0.0523,0.0528,0.0629,0.0613,0.0623,0.0648,0.0723,0.0726,0.0728,0.074,0.0745,0.0749,0,0,0,0,0,0,0.0249,0.029,0.0303,0.0321,0.0365,0.0424,0.0439,0.0463,0.0508,0.051,0.0547,0.0558,0.061,0.0626,0.0607,0.0691,0.0676,0.0681,0.0681,0.0686,0.069,0.0689,0.0614,0,0,0,0,0,0.0241,0.0251,0.0303,0.0317,0.0335,0.0386,0.0409,0.0439,0.0484,0.0504,0.0541,0.0582,0.063,0.0653,0.0695,0.0739,0.0743,0.076,0.0764,0.0767,0.0774,0.0809,0.0817,0.0739,0.0739,0.0739,0,0,0.0235,0.0256,0.0264,0.0311,0.0344,0.0384,0.04,0.0438,0.0477,0.0505,0.0561,0.0597,0.0645,0.0702,0.0726,0.0717,0.0787,0.0771,0.0773,0.0778,0.0813,0.082,0.0827,0.074,0.074,0.074,0,0,0.0228,0.0246,0.0254,0.0291,0.0338,0.0378,0.0386,0.0448,0.0479,0.0538,0.0571,0.0621,0.0685,0.0733,0.0763,0.081,0.0807,0.0818,0.0838,0.0872,0.0879,0.0885,0.0877,0.0882,0.0819,0.0819,0.0819,0,0.0218,0.0242,0.0268,0.0293,0.0327,0.0373,0.0409,0.0451,0.0523,0.0559,0.0554,0.0674,0.0704,0.079,0.0807,0.0819,0.0822,0.0815,0.0876,0.0882,0.0888,0.0879,0.0884,0.082,0.082,0.082,0.082,0,0.0227,0.0251,0.0261,0.0309,0.0349,0.0387,0.0449,0.0493,0.053,0.058,0.0664,0.0714,0.0786,0.0803,0.082,0.0886,0.0868,0.0875,0.0861,0.0897,0.0884,0.089,0.0822,0.0821,0.0821,0.0821,0,0,0.0194,0.0255,0.0259,0.0294,0.0363,0.0405,0.0464,0.0547,0.0601,0.0659,0.0733,0.0807,0.0833,0.0868,0.0898,0.0926,0.0955,0.0915,0.0916,0.0899,0.1001,0.1003,0.1008,0.0974,0.0975,0.0977,0.0967,0,0.0198,0.0244,0.0277,0.0343,0.0383,0.0447,0.0506,0.0584,0.0649,0.073,0.0789,0.0865,0.0859,0.0897,0.0927,0.0965,0.0974,0.0955,0.0976,0.0976,0.0968,0.1017,0.1009,0.1003,0.0972,0.0973,0.0974,0,0.0201,0.0235,0.0289,0.0381,0.0404,0.045,0.0563,0.0624,0.0738,0.0786,0.0865,0.0915,0.0987,0.0964,0.1025,0.1013,0.1003,0.1011,0.1011,0.1015,0.099,0.0969,0.1014,0.1059,0.0982,0.0981,0.0981,0,0.018,0.0252,0.0296,0.0326,0.0428,0.0469,0.053,0.0641,0.0709,0.0823,0.0882,0.0969,0.1022,0.104,0.1055,0.1044,0.1102,0.1088,0.1071,0.1068,0.1069,0.1065,0.1158,0.111,0.111,0.111,0.111,0,0.0183,0.0222,0.0289,0.0319,0.0392,0.0461,0.0554,0.0628,0.0738,0.0831,0.0905,0.099,0.1044,0.109,0.1078,0.1099,0.1117,0.1085,0.1083,0.1071,0.1068,0.1112,0.1142,0.111,0.111,0.111,0.111,0,0.0169,0.0204,0.0266,0.0354,0.0386,0.044,0.056,0.0636,0.0726,0.0847,0.0883,0.1014,0.1078,0.1106,0.1145,0.1135,0.1177,0.1132,0.1096,0.1091,0.1125,0.1155,0.1246,0.1297,0.1123,0.1123,0.1123,0,0.017,0.0198,0.0281,0.0318,0.0359,0.0443,0.0513,0.0621,0.0704,0.0866,0.0928,0.1028,0.1117,0.1172,0.1174,0.1161,0.1189,0.1135,0.1123,0.1145,0.1176,0.1193,0.1232,0.1109,0.1109,0.1109,0.1109,0,0.0187,0.0207,0.0257,0.0324,0.0389,0.0479,0.0579,0.0637,0.0773,0.0865,0.1001,0.1077,0.1153,0.1184,0.1175,0.1162,0.1198,0.1135,0.1186,0.1208,0.1207,0.1248,0.1065,0.111,0.111,0.111,0.111,0.111,0.0198,0.023,0.0285,0.0352,0.0424,0.0521,0.0587,0.0692,0.081,0.0956,0.1029,0.1129,0.1179,0.1192,0.1197,0.1203,0.1213,0.1183,0.1221,0.1238,0.1298,0.1102,0.1134,0.1134,0.1134,0.1135,0.1135,0,0.0223,0.0262,0.032,0.0406,0.048,0.0524,0.0644,0.071,0.0828,0.0946,0.1056,0.113,0.1193,0.1222,0.1244,0.1277,0.1302,0.1293,0.1322,0.1362,0.1205,0.1214,0.1234,0.1234,0.1234,0.1234,0.1234,0.1234,0.0244,0.0296,0.0327,0.0443,0.0505,0.0605,0.0668,0.0752,0.0832,0.0942,0.0994,0.1054,0.111,0.1285,0.1376,0.1386,0.1481,0.1443,0.1517,0.1399,0.1392,0.1384,0.1402,0.146,0.146,0.1657,0.1659,0.166]}],[{"header":{"parameterUnit":"m.s-1","parameterCategory":2,"la1":30.2991,"la2":30.254,"lo1":-89.0895,"lo2":-89.0444,"dy":0.0017,"dx":0.0017,"nx":28,"ny":28,"refTime":"2024-02-27T09:00:00:Z","depth":"2","parameterNumber":2,"parameterNumberName":"U-component_of_CURRENTS"},"data":[0,0,0,0,0,0,0,0,0,0,0,0,0,0,0,0,0,0,0,0,0,0,0,0,0,0,0,0,0,0,0,0,0,0,0,0,0,0,0,0,0,0,0,0,0,0,0,0,0,0,0,0,0,0,0,0,0,0,0.1745,0.1746,0,0.1747,0.1747,0.1746,0.1752,0.1753,0.1753,0.1754,0.1839,0.1841,0.1842,0,0,0,0,0,0,0,0,0,0,0,0,0,0.1785,0.1783,0.1745,0.1746,0.1746,0.1747,0.1747,0.1746,0.1752,0.1753,0.1754,0.1754,0.1838,0.184,0.1842,0,0,0,0,0,0,0,0,0,0,0,0,0,0.1769,0.1783,0.1745,0.1753,0.1755,0.1747,0.1747,0.1746,0.1752,0.1753,0.1754,0.1755,0.1838,0.184,0.1843,0.1838,0,0,0.185,0.1851,0,0,0,0,0,0,0,0,0.177,0.1767,0.1752,0.1753,0.1754,0.1755,0.1792,0.1783,0.1752,0.1747,0.1754,0.1755,0.1822,0.1826,0.1814,0.1842,0.1846,0.185,0.1852,0.1853,0.1854,0,0,0,0,0,0,0,0.1771,0.1768,0.174,0.1752,0.1754,0.1771,0.1769,0.179,0.1776,0.1747,0.1749,0.1758,0.1822,0.1812,0.1817,0.1847,0.185,0.1853,0.1854,0.1855,0.1951,0.1952,0,0,0,0,0,0,0.1779,0.1768,0.174,0.1741,0.1771,0.1769,0.1767,0.1749,0.1774,0.178,0.1757,0.1759,0.1807,0.1814,0.182,0.188,0.1853,0.1855,0.1857,0.195,0.1951,0.1952,0,0,0,0,0,0,0.1779,0.1775,0.174,0.1761,0.1758,0.1768,0.1748,0.1749,0.1779,0.1782,0.1788,0.1792,0.1808,0.1817,0.1865,0.1882,0.1856,0.1859,0.1949,0.195,0.1952,0.1961,0,0,0,0,0,0,0.178,0.1774,0.1784,0.176,0.1758,0.1725,0.1748,0.1749,0.1783,0.1786,0.1813,0.1819,0.181,0.1861,0.1867,0.1885,0.1861,0.1947,0.1949,0.1951,0.1959,0.1962,0.1965,0,0,0,0,0,0.1781,0.1768,0.1783,0.1782,0.1762,0.1725,0.1723,0.1731,0.1785,0.177,0.1818,0.1821,0.1878,0.1864,0.1871,0.1889,0.1946,0.1949,0.1951,0.1958,0.1962,0.1965,0,0,0,0,0,0,0.1773,0.1768,0.1783,0.1767,0.1751,0.1728,0.1727,0.1759,0.1785,0.1822,0.1836,0.1843,0.189,0.1895,0.188,0.1924,0.1912,0.1916,0.1915,0.1919,0.1922,0.1931,0.1863,0,0,0,0,0,0.1782,0.178,0.1765,0.1753,0.1746,0.1756,0.1759,0.1777,0.1792,0.1806,0.1835,0.1875,0.1897,0.1915,0.193,0.196,0.1972,0.1977,0.198,0.1983,0.1996,0.205,0.206,0.196,0.196,0.196,0,0,0.1788,0.1776,0.1784,0.1755,0.1746,0.1736,0.1757,0.1767,0.1783,0.1815,0.186,0.1894,0.1911,0.1933,0.1955,0.1945,0.2008,0.1986,0.1988,0.2,0.2054,0.2064,0.2072,0.1962,0.1962,0.1961,0,0,0.1782,0.1771,0.1776,0.1758,0.1762,0.1751,0.1769,0.178,0.18,0.1846,0.188,0.1934,0.1964,0.1974,0.1984,0.2022,0.2027,0.203,0.2049,0.2101,0.211,0.2118,0.2103,0.211,0.2026,0.2026,0.2026,0,0.18,0.1782,0.1768,0.1756,0.175,0.1765,0.1767,0.1772,0.1813,0.184,0.1863,0.1951,0.1978,0.2008,0.2024,0.2029,0.2043,0.2029,0.2105,0.2114,0.2122,0.2105,0.2113,0.2027,0.2027,0.2027,0.2027,0,0.1788,0.1786,0.1771,0.1763,0.1751,0.1742,0.1748,0.1775,0.1827,0.1849,0.1916,0.1956,0.2005,0.2023,0.204,0.2106,0.2089,0.2106,0.2094,0.2132,0.2112,0.2119,0.2028,0.2028,0.2028,0.2028,0,0,0.1794,0.1777,0.1776,0.177,0.1759,0.1736,0.1763,0.177,0.1802,0.1861,0.1899,0.1969,0.2018,0.2037,0.2069,0.2126,0.2189,0.2151,0.2153,0.213,0.2267,0.2002,0.1985,0.2231,0.2233,0.2235,0.2214,0,0.1792,0.1776,0.1771,0.1754,0.1738,0.1748,0.1753,0.1781,0.1811,0.1845,0.1912,0.1956,0.2007,0.2048,0.2115,0.2184,0.2218,0.2191,0.2239,0.2239,0.1996,0.1988,0.183,0.1778,0.2221,0.2223,0.2224,0,0.1782,0.1768,0.1766,0.1744,0.1739,0.1745,0.1752,0.1764,0.1809,0.1841,0.1908,0.1948,0.2038,0.2077,0.2204,0.219,0.2236,0.2279,0.2279,0.204,0.1989,0.1821,0.1775,0.2236,0.2235,0.2234,0.2233,0,0.1768,0.1753,0.175,0.174,0.173,0.1751,0.1756,0.179,0.1795,0.1849,0.1868,0.1961,0.2015,0.2116,0.2209,0.2224,0.2326,0.2343,0.213,0.211,0.1986,0.1948,0.2423,0.2423,0.2423,0.2423,0.2423,0,0.1736,0.1728,0.1752,0.174,0.1741,0.175,0.1763,0.1782,0.1811,0.1813,0.1877,0.1894,0.2044,0.2107,0.2196,0.2159,0.231,0.2118,0.209,0.1973,0.1937,0.2357,0.235,0.2422,0.2422,0.2423,0.2423,0,0.1704,0.172,0.1714,0.1729,0.1737,0.1744,0.1754,0.1756,0.1791,0.1798,0.1815,0.1868,0.1913,0.2002,0.2135,0.209,0.2117,0.207,0.1872,0.1817,0.1864,0.1858,0.18,0.179,0.1782,0.1776,0.177,0,0.1671,0.1671,0.1709,0.1714,0.1726,0.1738,0.1743,0.1759,0.1755,0.1772,0.1769,0.1791,0.1773,0.1786,0.1724,0.1707,0.1918,0.1532,0.1505,0.1822,0.1803,0.1809,0.1814,0.1356,0.1347,0.134,0.1334,0,0.1593,0.164,0.1644,0.1688,0.1701,0.1687,0.1701,0.1685,0.1698,0.1678,0.1651,0.1631,0.1539,0.1392,0.1298,0.1294,0.1507,0.1371,0.1821,0.1489,0.1387,0.1373,0.1397,0.1272,0.1278,0.1283,0.1286,0.1289,0.1553,0.1556,0.1605,0.164,0.1653,0.1648,0.1606,0.1595,0.1551,0.1449,0.1466,0.1314,0.1274,0.0955,0.0919,0.085,0.0969,0.097,0.1001,0.1037,0.094,0.0825,0.0585,0.0587,0.0589,0.0591,0.0592,0,0.1516,0.1539,0.1543,0.1577,0.1569,0.1609,0.1571,0.1475,0.1385,0.1251,0.1129,0.0858,0.068,0.0685,0.0436,0.0355,0.046,0.0374,0.0559,0.0616,0.0668,0.0564,0.0103,0.0102,0.0101,0.0101,0,0,0.1491,0.1498,0.1508,0.149,0.1513,0.1446,0.1409,0.1259,0.1122,0.0879,0.0701,0.0562,0.0592,0.0327,0.0273,0.0167,0.0411,0.0136,0.0519,0.0793,0.0845,0.0978,0.0872,0,0,0,0,0]},{"header":{"parameterUnit":"m.s-1","parameterCategory":2,"la1":30.2991,"la2":30.254,"lo1":-89.0895,"lo2":-89.0444,"dy":0.0017,"dx":0.0017,"nx":28,"ny":28,"refTime":"2024-02-27T09:00:00:Z","depth":"2","parameterNumber":3,"parameterNumberName":"V-component_of_CURRENTS"},"data":[0,0,0,0,0,0,0,0,0,0,0,0,0,0,0,0,0,0,0,0,0,0,0,0,0,0,0,0,0,0,0,0,0,0,0,0,0,0,0,0,0,0,0,0,0,0,0,0,0,0,0,0,0,0,0,0,0,0,-0.0271,-0.0269,0,-0.0128,-0.0126,-0.0124,-0.0041,-0.004,-0.004,-0.004,0.0075,0.0077,0.008,0,0,0,0,0,0,0,0,0,0,0,0,0,-0.0355,-0.0354,-0.0271,-0.0269,-0.0267,-0.0128,-0.0126,-0.0124,-0.0041,-0.004,-0.004,-0.004,0.0074,0.0077,0.008,0,0,0,0,0,0,0,0,0,0,0,0,0,-0.0276,-0.0354,-0.0271,-0.021,-0.0203,-0.0129,-0.0126,-0.0124,-0.0041,-0.004,-0.004,-0.004,0.0073,0.0077,0.0081,0.0098,0,0,0.0093,0.0095,0,0,0,0,0,0,0,0,-0.028,-0.0273,-0.022,-0.0214,-0.0206,-0.0102,-0.0114,-0.0051,-0.0041,-0.0101,-0.004,-0.0039,0.0012,0.0021,0.0049,0.0103,0.0108,0.0094,0.0096,0.0098,0.0099,0,0,0,0,0,0,0,-0.0286,-0.0277,-0.0213,-0.0219,-0.021,-0.0149,-0.0138,-0.0101,-0.0049,-0.0096,-0.009,-0.0075,0.0016,0.0044,0.0052,0.011,0.0094,0.0097,0.01,0.0102,0.0224,0.0224,0,0,0,0,0,0,-0.0312,-0.0284,-0.0218,-0.0209,-0.0244,-0.0149,-0.0136,-0.0135,-0.0048,-0.0035,-0.0076,-0.0072,0.0037,0.0047,0.0056,0.0131,0.0098,0.0102,0.0104,0.0223,0.0224,0.0225,0,0,0,0,0,0,-0.0314,-0.0308,-0.0224,-0.0243,-0.0228,-0.0149,-0.0147,-0.0133,-0.0087,-0.0033,-0.0019,-0.0043,0.0038,0.005,0.0108,0.0133,0.0104,0.0108,0.0222,0.0223,0.0224,0.0248,0,0,0,0,0,0,-0.0318,-0.031,-0.0297,-0.0245,-0.0228,-0.0195,-0.0147,-0.013,-0.008,-0.0073,-0.0001,0.001,0.0039,0.0102,0.0112,0.0139,0.0111,0.0221,0.0222,0.0224,0.0246,0.025,0.0252,0,0,0,0,0,-0.0321,-0.0311,-0.0298,-0.0289,-0.0221,-0.0196,-0.0182,-0.0122,-0.0079,-0.0074,-0.0004,0.0008,0.0117,0.0106,0.0118,0.0146,0.022,0.0222,0.0224,0.0245,0.0249,0.0252,0,0,0,0,0,0,-0.0343,-0.03,-0.0285,-0.0263,-0.0241,-0.0182,-0.0156,-0.0115,-0.0052,-0.0032,0.0025,0.004,0.0095,0.0115,0.0101,0.0183,0.0168,0.0172,0.018,0.0184,0.0187,0.0206,0.0114,0,0,0,0,0,-0.0345,-0.0329,-0.0293,-0.028,-0.0267,-0.0208,-0.0178,-0.0146,-0.0091,-0.0061,0.0,0.0061,0.0108,0.0142,0.0177,0.023,0.0239,0.0252,0.0256,0.0258,0.028,0.0315,0.0324,0.023,0.023,0.023,0,0,-0.0352,-0.0326,-0.0316,-0.0283,-0.0253,-0.0226,-0.0189,-0.0155,-0.0113,-0.006,0.0029,0.0071,0.0122,0.018,0.0206,0.0205,0.0283,0.026,0.0263,0.0284,0.0318,0.0327,0.0335,0.0231,0.0231,0.0231,0,0,-0.0355,-0.0339,-0.0318,-0.0299,-0.0257,-0.023,-0.0222,-0.0156,-0.0109,-0.004,0.0017,0.0084,0.0156,0.0212,0.0244,0.0287,0.0291,0.0289,0.0336,0.0369,0.0377,0.0385,0.0379,0.0386,0.03,0.03,0.03,0,-0.0365,-0.0332,-0.0313,-0.0286,-0.0258,-0.0234,-0.0204,-0.0162,-0.0078,-0.002,-0.0018,0.014,0.0176,0.0275,0.0294,0.0298,0.0303,0.0318,0.0374,0.0382,0.0389,0.0381,0.0389,0.0301,0.0301,0.0301,0.0301,0,-0.0344,-0.0315,-0.0307,-0.0267,-0.0242,-0.0225,-0.0176,-0.0126,-0.0068,-0.0005,0.0103,0.0164,0.0265,0.0277,0.0307,0.0389,0.0369,0.0365,0.0365,0.04,0.0389,0.0396,0.0303,0.0303,0.0302,0.0302,0,0,-0.0387,-0.0306,-0.03,-0.027,-0.0227,-0.0209,-0.0145,-0.0071,0.0011,0.0075,0.0187,0.0272,0.0325,0.0365,0.0407,0.0447,0.0492,0.0439,0.044,0.0434,0.0541,0.0535,0.0542,0.0499,0.0502,0.0503,0.0501,0,-0.038,-0.0315,-0.0274,-0.0228,-0.0201,-0.0153,-0.0088,-0.0013,0.0062,0.0169,0.0242,0.0347,0.0349,0.0414,0.0452,0.0501,0.0517,0.0491,0.0508,0.0508,0.0501,0.0554,0.0488,0.0483,0.0508,0.0509,0.051,0,-0.0373,-0.0328,-0.0265,-0.0184,-0.0163,-0.0125,-0.001,0.0056,0.0192,0.0261,0.0366,0.0426,0.0528,0.0502,0.0584,0.0569,0.0559,0.0567,0.0567,0.0568,0.0519,0.0458,0.0495,0.0522,0.0521,0.052,0.052,0,-0.0405,-0.0327,-0.0272,-0.0249,-0.0153,-0.0095,-0.0032,0.01,0.0185,0.0333,0.041,0.0516,0.0589,0.0609,0.064,0.0619,0.0697,0.066,0.063,0.0627,0.058,0.0571,0.0687,0.0687,0.0687,0.0687,0.0687,0,-0.0419,-0.0383,-0.0276,-0.0248,-0.0163,-0.0091,0.0028,0.0117,0.0257,0.0378,0.0465,0.0566,0.0623,0.0678,0.0667,0.069,0.0714,0.0659,0.0646,0.0582,0.0574,0.0621,0.0613,0.0687,0.0687,0.0687,0.0687,0,-0.0473,-0.0403,-0.0338,-0.0218,-0.0174,-0.0109,0.0048,0.0147,0.0273,0.0428,0.0479,0.0616,0.0702,0.0726,0.0768,0.0737,0.0746,0.0728,0.0637,0.0615,0.0633,0.0626,0.0698,0.0698,0.0699,0.0699,0.0699,0,-0.0489,-0.046,-0.0323,-0.0258,-0.0199,-0.0087,0.0011,0.0146,0.0256,0.0466,0.0542,0.0665,0.0767,0.0818,0.0787,0.0761,0.0759,0.0669,0.0627,0.0664,0.0644,0.0637,0.063,0.0548,0.0547,0.0546,0.0546,0,-0.0527,-0.0471,-0.0405,-0.0263,-0.0159,-0.0042,0.0105,0.0176,0.0359,0.0477,0.0649,0.0739,0.0804,0.0788,0.0758,0.072,0.0677,0.065,0.074,0.0566,0.0526,0.0505,0.0502,0.0537,0.0538,0.0539,0.0539,0.054,-0.0547,-0.0503,-0.0383,-0.0253,-0.0123,0.003,0.0119,0.0259,0.0409,0.0606,0.0673,0.0781,0.0778,0.0726,0.0697,0.0633,0.0638,0.0577,0.0578,0.0581,0.0575,0.0539,0.0548,0.0549,0.055,0.0551,0.0551,0,-0.0518,-0.0455,-0.0362,-0.0184,-0.0037,0.0041,0.0213,0.0306,0.0469,0.0585,0.0714,0.0686,0.0684,0.0669,0.0555,0.0522,0.0503,0.0504,0.0468,0.0475,0.0481,0.047,0.0416,0.0416,0.0416,0.0416,0,0,-0.0493,-0.0403,-0.035,-0.0124,0.001,0.0196,0.0293,0.0406,0.0493,0.0591,0.0625,0.0709,0.0673,0.0576,0.0523,0.0459,0.0477,0.0445,0.0544,0.0509,0.0516,0.05,0.0487,0,0,0,0,0]}],[{"header":{"parameterUnit":"m.s-1","parameterCategory":2,"la1":30.2991,"la2":30.254,"lo1":-89.0895,"lo2":-89.0444,"dy":0.0017,"dx":0.0017,"nx":28,"ny":28,"refTime":"2024-02-27T09:00:00:Z","depth":"4","parameterNumber":2,"parameterNumberName":"U-component_of_CURRENTS"},"data":[0,0,0,0,0,0,0,0,0,0,0,0,0,0,0,0,0,0,0,0,0,0,0,0,0,0,0,0,0,0,0,0,0,0,0,0,0,0,0,0,0,0,0,0,0,0,0,0,0,0,0,0,0,0,0,0,0,0,-0.0478,-0.0478,0,-0.0488,-0.0489,-0.0489,-0.0513,-0.0513,-0.0513,-0.0514,-0.0569,-0.057,-0.0571,0,0,0,0,0,0,0,0,0,0,0,0,0,-0.0459,-0.0459,-0.0478,-0.0478,-0.0478,-0.0488,-0.0489,-0.0489,-0.0513,-0.0513,-0.0514,-0.0514,-0.0569,-0.057,-0.0571,0,0,0,0,0,0,0,0,0,0,0,0,0,-0.0469,-0.046,-0.0478,-0.049,-0.0491,-0.0488,-0.0489,-0.0489,-0.0513,-0.0513,-0.0514,-0.0514,-0.0568,-0.057,-0.0571,-0.057,0,0,-0.0576,-0.0577,0,0,0,0,0,0,0,0,-0.0469,-0.047,-0.0488,-0.0489,-0.0491,-0.0499,-0.0502,-0.0518,-0.0512,-0.0506,-0.0514,-0.0514,-0.0548,-0.0552,-0.0554,-0.0573,-0.0575,-0.0577,-0.0578,-0.0578,-0.0579,0,0,0,0,0,0,0,-0.0468,-0.047,-0.0483,-0.0488,-0.049,-0.0488,-0.0491,-0.0505,-0.0526,-0.0506,-0.0508,-0.0507,-0.055,-0.0552,-0.0555,-0.0576,-0.0577,-0.0578,-0.0579,-0.058,-0.0581,-0.058,0,0,0,0,0,0,-0.0465,-0.0469,-0.0483,-0.0484,-0.0479,-0.0488,-0.0491,-0.0497,-0.0524,-0.0529,-0.0506,-0.0508,-0.0549,-0.0553,-0.0557,-0.0538,-0.0578,-0.058,-0.0581,-0.0582,-0.058,-0.0579,0,0,0,0,0,0,-0.0464,-0.0466,-0.0483,-0.0475,-0.0477,-0.0488,-0.0494,-0.0496,-0.0513,-0.0524,-0.0529,-0.0522,-0.0549,-0.0555,-0.0566,-0.0541,-0.0581,-0.0582,-0.0583,-0.0581,-0.058,-0.0512,0,0,0,0,0,0,-0.0464,-0.0466,-0.0477,-0.0475,-0.0477,-0.0487,-0.0493,-0.0496,-0.051,-0.0512,-0.0538,-0.0543,-0.055,-0.0563,-0.0567,-0.0544,-0.0584,-0.0584,-0.0582,-0.058,-0.0515,-0.0508,-0.0502,0,0,0,0,0,-0.0463,-0.0472,-0.0477,-0.0479,-0.0489,-0.0487,-0.0489,-0.0499,-0.051,-0.0516,-0.0524,-0.0543,-0.0554,-0.0564,-0.0569,-0.0545,-0.0585,-0.0583,-0.0581,-0.0518,-0.0509,-0.0502,0,0,0,0,0,0,-0.0472,-0.0475,-0.0481,-0.0492,-0.0493,-0.0491,-0.0504,-0.0506,-0.0517,-0.0526,-0.0537,-0.0542,-0.0541,-0.0556,-0.0566,-0.054,-0.057,-0.0569,-0.0521,-0.0513,-0.0506,-0.0476,-0.0585,0,0,0,0,0,-0.0477,-0.0487,-0.0485,-0.0496,-0.0501,-0.0505,-0.051,-0.0512,-0.0517,-0.0524,-0.0518,-0.0525,-0.0533,-0.0535,-0.0542,-0.0533,-0.0567,-0.052,-0.0513,-0.0507,-0.0486,-0.0542,-0.0539,-0.0572,-0.0572,-0.0572,0,0,-0.0485,-0.0487,-0.0495,-0.0499,-0.0508,-0.0497,-0.0511,-0.052,-0.0492,-0.0528,-0.0491,-0.0508,-0.0528,-0.051,-0.051,-0.0521,-0.0513,-0.0505,-0.05,-0.0481,-0.054,-0.0536,-0.0534,-0.0571,-0.0571,-0.0571,0,0,-0.0498,-0.051,-0.0521,-0.052,-0.0526,-0.0509,-0.0513,-0.05,-0.0482,-0.0452,-0.047,-0.0476,-0.0463,-0.0469,-0.0476,-0.0442,-0.0483,-0.0438,-0.0373,-0.0428,-0.0426,-0.0425,-0.0454,-0.0456,-0.0428,-0.0428,-0.0428,0,-0.0505,-0.0515,-0.0523,-0.0528,-0.0511,-0.0512,-0.0497,-0.0478,-0.0455,-0.0424,-0.0432,-0.0414,-0.0441,-0.043,-0.0403,-0.0427,-0.0453,-0.0403,-0.0421,-0.042,-0.042,-0.0451,-0.0454,-0.0424,-0.0425,-0.0425,-0.0425,0,-0.0521,-0.0526,-0.0534,-0.0524,-0.0503,-0.0499,-0.0458,-0.0421,-0.0387,-0.0357,-0.0324,-0.0348,-0.033,-0.0344,-0.0356,-0.0354,-0.037,-0.0414,-0.0442,-0.0412,-0.0447,-0.0451,-0.0419,-0.042,-0.0421,-0.0422,0,0,-0.0523,-0.054,-0.054,-0.0524,-0.0497,-0.0471,-0.0411,-0.0345,-0.0302,-0.0268,-0.0216,-0.0218,-0.022,-0.0227,-0.0257,-0.0294,-0.0318,-0.0331,-0.0336,-0.036,-0.0414,-0.0379,-0.0381,-0.0366,-0.0366,-0.0366,-0.0436,0,-0.0525,-0.0532,-0.0518,-0.0477,-0.0466,-0.0417,-0.035,-0.0289,-0.0237,-0.0183,-0.0193,-0.0167,-0.018,-0.0177,-0.0208,-0.0305,-0.0326,-0.0293,-0.0438,-0.0441,-0.0415,-0.0384,-0.0368,-0.0439,-0.0441,-0.0441,-0.0442,0,-0.0525,-0.0526,-0.0506,-0.0437,-0.0423,-0.0371,-0.0251,-0.0198,-0.0131,-0.0095,-0.0065,-0.0074,-0.0089,-0.0127,-0.023,-0.0205,-0.0276,-0.0355,-0.0361,-0.035,-0.0413,-0.0478,-0.045,-0.045,-0.0449,-0.0449,-0.0448,0,-0.0508,-0.0491,-0.0464,-0.0453,-0.0389,-0.0321,-0.0252,-0.0163,-0.0122,-0.0043,-0.0037,-0.0026,-0.006,-0.0131,-0.0262,-0.0238,-0.0418,-0.042,-0.0449,-0.0448,-0.0493,-0.0494,-0.0486,-0.0486,-0.0486,-0.0485,-0.0485,0,-0.0488,-0.0469,-0.0453,-0.0439,-0.0367,-0.03,-0.0209,-0.0136,-0.0074,-0.006,0.0002,-0.0033,-0.0068,-0.0171,-0.0257,-0.0371,-0.0414,-0.0416,-0.0459,-0.046,-0.0457,-0.0496,-0.0496,-0.0488,-0.0488,-0.0487,-0.0487,0,-0.047,-0.0477,-0.0458,-0.0398,-0.0367,-0.0306,-0.0207,-0.017,-0.0088,-0.008,-0.0061,-0.0055,-0.0127,-0.0197,-0.0346,-0.0383,-0.05,-0.054,-0.053,-0.0576,-0.0475,-0.0471,-0.0505,-0.0504,-0.0503,-0.0503,-0.0502,0,-0.0461,-0.0459,-0.0447,-0.0444,-0.0411,-0.0329,-0.0293,-0.0185,-0.0177,-0.0137,-0.0175,-0.0178,-0.0184,-0.0336,-0.0411,-0.05,-0.0523,-0.057,-0.0478,-0.0436,-0.0475,-0.0472,-0.0469,-0.0501,-0.0501,-0.0501,-0.0501,0,-0.0447,-0.0464,-0.0461,-0.0475,-0.0444,-0.0416,-0.0359,-0.0341,-0.0259,-0.0223,-0.022,-0.0208,-0.0278,-0.0317,-0.0383,-0.0481,-0.052,-0.0562,-0.0562,-0.0475,-0.0432,-0.0471,-0.0469,-0.0499,-0.0499,-0.0499,-0.0499,0,-0.0446,-0.0455,-0.0486,-0.047,-0.0484,-0.0479,-0.0437,-0.0404,-0.0355,-0.0278,-0.0319,-0.0304,-0.0295,-0.032,-0.0438,-0.0449,-0.041,-0.0418,-0.0424,-0.0427,-0.0371,-0.0304,-0.0351,0,0,0,0,0,-0.0431,-0.0438,-0.0467,-0.0464,-0.0504,-0.0493,-0.0486,-0.0456,-0.0397,-0.0376,-0.0303,-0.0339,-0.0331,-0.0371,-0.0358,-0.0442,-0.0459,-0.0436,-0.0483,-0.0486,-0.0489,-0.0431,0,0,0,0,0,0,-0.0419,-0.0453,-0.0463,-0.0481,-0.0477,-0.0502,-0.0492,-0.0465,-0.0439,-0.0374,-0.0371,-0.0326,-0.0342,-0.0298,-0.0342,-0.0354,-0.0384,-0.043,-0.0431,-0.0484,-0.0487,-0.0489,-0.043,0,0,0,0,0]},{"header":{"parameterUnit":"m.s-1","parameterCategory":2,"la1":30.2991,"la2":30.254,"lo1":-89.0895,"lo2":-89.0444,"dy":0.0017,"dx":0.0017,"nx":28,"ny":28,"refTime":"2024-02-27T09:00:00:Z","depth":"4","parameterNumber":3,"parameterNumberName":"V-component_of_CURRENTS"},"data":[0,0,0,0,0,0,0,0,0,0,0,0,0,0,0,0,0,0,0,0,0,0,0,0,0,0,0,0,0,0,0,0,0,0,0,0,0,0,0,0,0,0,0,0,0,0,0,0,0,0,0,0,0,0,0,0,0,0,0.0441,0.0441,0,0.0497,0.0498,0.0499,0.057,0.0571,0.0572,0.0573,0.0614,0.0614,0.0614,0,0,0,0,0,0,0,0,0,0,0,0,0,0.04,0.04,0.0441,0.0441,0.0442,0.0497,0.0498,0.0499,0.057,0.0571,0.0572,0.0573,0.0614,0.0614,0.0614,0,0,0,0,0,0,0,0,0,0,0,0,0,0.0435,0.0401,0.0441,0.0482,0.0486,0.0497,0.0498,0.0499,0.057,0.0571,0.0573,0.0574,0.0614,0.0614,0.0614,0.0589,0,0,0.0615,0.0615,0,0,0,0,0,0,0,0,0.0433,0.0437,0.0476,0.0479,0.0484,0.0526,0.0498,0.0528,0.0569,0.0541,0.0573,0.0575,0.058,0.0583,0.0595,0.0591,0.0593,0.0615,0.0615,0.0616,0.0616,0,0,0,0,0,0,0,0.0431,0.0435,0.0466,0.0476,0.0481,0.0499,0.0506,0.0505,0.0554,0.0543,0.0548,0.055,0.0583,0.0594,0.0596,0.0593,0.0615,0.0616,0.0616,0.0616,0.059,0.0589,0,0,0,0,0,0,0.0417,0.0433,0.0464,0.0467,0.0459,0.0499,0.0506,0.0513,0.0554,0.0561,0.0549,0.0553,0.0593,0.0596,0.0598,0.0605,0.0616,0.0616,0.0616,0.0591,0.059,0.0589,0,0,0,0,0,0,0.0416,0.0419,0.0462,0.0449,0.0455,0.0498,0.0505,0.0513,0.0565,0.0558,0.0566,0.0595,0.0594,0.0597,0.0647,0.0606,0.0616,0.0616,0.0592,0.059,0.0589,0.0597,0,0,0,0,0,0,0.0415,0.0419,0.0429,0.0448,0.0455,0.0482,0.0503,0.0513,0.056,0.0568,0.0599,0.0602,0.0595,0.0646,0.0647,0.0607,0.0617,0.0593,0.0591,0.0589,0.0598,0.0596,0.0595,0,0,0,0,0,0.0413,0.0417,0.0429,0.0433,0.0465,0.0482,0.0488,0.0524,0.0561,0.0579,0.0624,0.0604,0.0633,0.0648,0.0649,0.0607,0.0594,0.0592,0.059,0.0599,0.0596,0.0595,0,0,0,0,0,0,0.0405,0.0425,0.0438,0.0449,0.047,0.0494,0.0518,0.0545,0.0596,0.063,0.0628,0.0634,0.0647,0.0636,0.0652,0.059,0.0594,0.0592,0.06,0.0598,0.0597,0.0594,0.0617,0,0,0,0,0,0.0404,0.0414,0.0436,0.0444,0.0465,0.0501,0.052,0.0555,0.0593,0.062,0.0646,0.0654,0.0628,0.0631,0.0625,0.0617,0.0615,0.0577,0.0575,0.0574,0.057,0.0547,0.0543,0.0582,0.0582,0.0582,0,0,0.0402,0.0413,0.042,0.0443,0.0473,0.0511,0.0519,0.0571,0.0597,0.0613,0.068,0.0669,0.063,0.0616,0.0615,0.061,0.0566,0.0571,0.0571,0.0567,0.0544,0.054,0.0537,0.058,0.0581,0.0581,0,0,0.0403,0.0422,0.0439,0.0469,0.0519,0.054,0.0564,0.0622,0.0644,0.0687,0.0689,0.0682,0.067,0.0632,0.06,0.0588,0.0566,0.0558,0.0541,0.0519,0.0516,0.0513,0.053,0.0528,0.0547,0.0547,0.0547,0,0.0405,0.0433,0.0446,0.0485,0.0521,0.0561,0.0611,0.0625,0.0693,0.0692,0.0712,0.0672,0.0664,0.0593,0.0581,0.0582,0.058,0.0555,0.0518,0.0515,0.0512,0.0529,0.0528,0.0547,0.0547,0.0547,0.0547,0,0.0434,0.0467,0.0488,0.0547,0.0581,0.0634,0.0664,0.0696,0.0725,0.0724,0.0695,0.0678,0.0641,0.0608,0.0591,0.0532,0.0543,0.053,0.0528,0.0509,0.0528,0.0527,0.0547,0.0547,0.0547,0.0547,0,0,0.041,0.0492,0.0501,0.0549,0.0634,0.0665,0.0696,0.071,0.0713,0.0723,0.0689,0.0635,0.062,0.0583,0.0545,0.0511,0.0501,0.0506,0.0505,0.0533,0.0477,0.0431,0.0425,0.0477,0.0476,0.0475,0.0509,0,0.0437,0.0508,0.0546,0.0632,0.0687,0.0729,0.0746,0.0763,0.0749,0.0724,0.0649,0.0621,0.0604,0.0581,0.0539,0.0491,0.0491,0.0495,0.0482,0.0482,0.0451,0.0419,0.0472,0.0507,0.0507,0.0507,0.0506,0,0.0462,0.0509,0.0605,0.068,0.0709,0.0778,0.0811,0.0822,0.0766,0.0744,0.0679,0.0627,0.055,0.0554,0.0481,0.048,0.0494,0.0472,0.0473,0.0422,0.0431,0.0522,0.0503,0.0503,0.0504,0.0504,0.0504,0,0.0436,0.0542,0.0623,0.0666,0.0764,0.0817,0.0856,0.0847,0.0828,0.0766,0.0721,0.0633,0.0586,0.0546,0.0502,0.0492,0.0438,0.0426,0.0415,0.0414,0.0447,0.0449,0.0428,0.0428,0.0428,0.0428,0.0428,0,0.044,0.0497,0.0644,0.0687,0.0789,0.0853,0.0901,0.0903,0.0868,0.0804,0.0745,0.0633,0.0582,0.0521,0.0498,0.0437,0.0451,0.0406,0.0404,0.0453,0.0455,0.0448,0.0449,0.0429,0.0429,0.0429,0.0429,0,0.0393,0.0485,0.0593,0.0734,0.0788,0.0872,0.0949,0.093,0.0922,0.0824,0.0801,0.0655,0.0542,0.0519,0.0458,0.044,0.0395,0.0406,0.0489,0.0494,0.0394,0.0396,0.0355,0.0353,0.0352,0.0351,0.035,0,0.0369,0.0429,0.0616,0.0698,0.079,0.0903,0.0935,0.0964,0.0907,0.0784,0.0689,0.0594,0.049,0.0372,0.0349,0.035,0.0361,0.0396,0.0356,0.0376,0.0379,0.0383,0.0386,0.0347,0.0347,0.0347,0.0346,0,0.0324,0.0419,0.0492,0.0657,0.0771,0.0835,0.0873,0.0815,0.0772,0.0789,0.0578,0.0492,0.0369,0.0281,0.0343,0.032,0.0373,0.0381,0.0383,0.0345,0.0366,0.0372,0.0377,0.0341,0.0342,0.0342,0.0343,0,0.0287,0.0338,0.0452,0.0597,0.072,0.0721,0.0745,0.0679,0.0645,0.0533,0.0449,0.0337,0.0319,0.0262,0.0255,0.0282,0.026,0.0289,0.0296,0.0301,0.0263,0.0282,0.0217,0,0,0,0,0,0.0263,0.0281,0.0371,0.0503,0.0608,0.0682,0.0669,0.0657,0.061,0.0472,0.0478,0.0356,0.028,0.0199,0.0211,0.0198,0.026,0.0211,0.0296,0.0314,0.0319,0.0277,0,0,0,0,0,0,0.0237,0.0293,0.0323,0.0396,0.0465,0.0535,0.0525,0.0488,0.0399,0.0375,0.0318,0.0387,0.0299,0.0302,0.0223,0.0222,0.0278,0.0211,0.0211,0.031,0.0316,0.032,0.0279,0,0,0,0,0]}]]